Waarnemingen

Advertentie
Mijn weer
Schaffen, België (6465): temperatuur & dauwpunt: 16.10.2017 11:00:00 - 22.10.2017 11:00:00 (CEST)Schaffen, België (6465): windsnelheid & windstoten: 16.10.2017 11:00:00 - 22.10.2017 11:00:00 (CEST)Schaffen, België (6465): windrichting: 16.10.2017 11:00:00 - 22.10.2017 11:00:00 (CEST)Schaffen, België (6465): luchtdruk: 16.10.2017 11:00:00 - 22.10.2017 11:00:00 (CEST)Schaffen, België (6465): zicht: 16.10.2017 11:00:00 - 22.10.2017 11:00:00 (CEST)
Datum & Tijd tt [°C] td [°C] ff [km/u] ff [kn] fx [km/u] fx [kn] dd ppp [hPa] vv [km]
22.10.2017 11:00:00 10,1 8,8 16 9 - - ZW 1011,6 10
22.10.2017 10:00:00 9,9 8,3 21 11 36 19 ZZW 1011,1 10
22.10.2017 09:00:00 9,6 8,0 18 10 43 23 ZZW 1010,6 10
22.10.2017 08:00:00 9,7 7,9 22 12 - - ZZW 1010,0 3,3
22.10.2017 07:00:00 9,8 8,1 18 10 40 21 ZZW 1009,7 10
22.10.2017 06:00:00 9,3 8,4 21 11 40 21 ZZW 1009,6 6
22.10.2017 05:00:00 9,5 8,2 24 13 - - ZZW 1009,2 10
22.10.2017 04:00:00 10,0 7,6 21 11 43 23 ZZW 1009,8 7
22.10.2017 03:00:00 11,1 6,1 24 13 40 21 ZZW 1010,0 10
22.10.2017 02:00:00 10,8 6,1 22 12 - - ZZW 1010,2 10
22.10.2017 01:00:00 11,3 6,4 21 11 36 19 ZZW 1010,5 10
22.10.2017 00:00:00 11,4 6,6 16 9 36 19 ZZW 1010,8 10
21.10.2017 23:00:00 12,4 6,2 21 11 - - ZZW 1010,8 10
21.10.2017 22:00:00 12,5 8,4 16 9 29 16 Z 1010,6 10
21.10.2017 21:00:00 12,8 8,9 18 10 25 14 Z 1010,7 20
21.10.2017 20:00:00 13,8 8,2 13 7 - - Z 1010,7 10
21.10.2017 19:00:00 14,7 7,3 15 8 29 16 ZZW 1010,3 10
21.10.2017 18:00:00 15,9 6,9 16 9 43 23 ZZW 1010,5 10
21.10.2017 17:00:00 16,3 7,8 18 10 - - ZZW 1010,3 10
21.10.2017 16:00:00 17,1 7,3 22 12 47 25 ZZW 1010,5 10
21.10.2017 15:00:00 16,7 8,4 18 10 36 19 WZW 1010,5 10
21.10.2017 14:00:00 17,1 9,3 21 11 - - ZW 1010,6 10
21.10.2017 13:00:00 16,6 10,4 18 10 40 21 ZW 1010,6 10
21.10.2017 12:00:00 16,3 12,8 15 8 36 19 ZZW 1010,6 10
21.10.2017 11:00:00 15,1 13,3 16 9 - - ZZW 1010,5 10
21.10.2017 10:00:00 13,8 12,7 18 10 29 16 Z 1010,0 10
21.10.2017 09:00:00 12,6 11,9 18 10 29 16 Z 1010,2 10
21.10.2017 08:00:00 12,0 10,5 16 9 - - Z 1010,1 6
21.10.2017 07:00:00 11,1 8,5 15 8 29 16 Z 1010,2 10
21.10.2017 06:00:00 11,1 7,9 15 8 22 12 Z 1010,6 10
21.10.2017 05:00:00 10,8 7,6 15 8 - - ZZO 1011,0 10
21.10.2017 04:00:00 10,8 7,7 11 6 18 10 Z 1012,1 10
21.10.2017 03:00:00 11,3 7,6 11 6 18 10 Z 1012,7 10
21.10.2017 02:00:00 11,3 7,4 11 6 - - Z 1013,0 10
21.10.2017 01:00:00 11,5 7,2 15 8 22 12 Z 1013,3 10
21.10.2017 00:00:00 11,1 6,9 13 7 18 10 Z 1013,6 10
20.10.2017 23:00:00 11,1 6,9 13 7 - - ZZW 1013,7 10
20.10.2017 22:00:00 11,6 7,3 13 7 29 16 ZZW 1013,7 10
20.10.2017 21:00:00 12,5 7,4 13 7 29 16 ZZW 1013,5 10
20.10.2017 20:00:00 13,1 7,8 11 6 - - ZZW 1013,2 10
20.10.2017 19:00:00 13,6 7,9 15 8 29 16 ZZW 1012,6 10
20.10.2017 18:00:00 14,1 7,7 16 9 36 19 ZZW 1012,1 10
20.10.2017 17:00:00 14,1 8,3 16 9 - - ZZW 1011,6 10
20.10.2017 16:00:00 13,8 8,8 18 10 43 23 ZW 1011,2 10
20.10.2017 15:00:00 14,5 8,8 21 11 47 25 ZZW 1010,7 10
20.10.2017 14:00:00 13,5 9,2 21 11 - - ZZW 1010,3 10
20.10.2017 13:00:00 13,8 8,5 21 11 43 23 ZW 1010,2 10
20.10.2017 12:00:00 14,3 8,7 28 15 43 23 ZZW 1009,6 10
20.10.2017 11:00:00 14,3 9,1 21 11 - - ZW 1009,1 10
20.10.2017 10:00:00 14,3 10,9 16 9 40 21 ZZW 1008,3 10
20.10.2017 09:00:00 14,0 11,7 16 9 36 19 ZZW 1007,6 10
20.10.2017 08:00:00 14,5 12,7 24 13 - - ZZW 1006,5 10
20.10.2017 07:00:00 14,8 12,1 18 10 25 14 Z 1006,1 10
20.10.2017 06:00:00 15,5 11,4 15 8 22 12 Z 1006,6 10
20.10.2017 05:00:00 15,8 11,5 13 7 - - Z 1007,1 10
20.10.2017 04:00:00 15,8 11,0 11 6 22 12 Z 1007,2 10
20.10.2017 03:00:00 16,5 11,4 11 6 22 12 Z 1007,7 10
20.10.2017 02:00:00 16,3 11,7 11 6 - - Z 1007,8 10
20.10.2017 01:00:00 16,2 12,0 13 7 18 10 ZZO 1007,7 10
20.10.2017 00:00:00 16,3 11,9 9 5 18 10 ZZO 1007,7 10
19.10.2017 23:00:00 16,9 12,3 13 7 - - ZZO 1007,8 10
19.10.2017 22:00:00 16,8 12,8 13 7 18 10 ZZO 1008,1 10
19.10.2017 21:00:00 17,8 13,2 9 5 14 8 ZZO 1008,2 10
19.10.2017 20:00:00 19,1 13,5 9 5 - - ZZO 1008,3 10
19.10.2017 19:00:00 19,6 13,4 9 5 18 10 ZZO 1008,3 10
19.10.2017 18:00:00 20,7 13,0 13 7 18 10 Z 1008,2 10
19.10.2017 17:00:00 21,1 13,7 13 7 - - ZZO 1008,1 10
19.10.2017 16:00:00 20,2 13,1 13 7 25 14 ZZO 1008,2 10
19.10.2017 15:00:00 20,8 12,8 15 8 25 14 ZZO 1008,7 10
19.10.2017 14:00:00 19,7 12,3 15 8 - - ZZO 1009,7 10
19.10.2017 13:00:00 19,6 11,9 13 7 22 12 ZZO 1010,3 10
19.10.2017 12:00:00 17,3 12,0 11 6 18 10 ZZO 1010,7 10
19.10.2017 11:00:00 14,7 11,5 13 7 - - ZZO 1011,2 10
19.10.2017 10:00:00 12,8 11,0 8 4 11 6 ZZO 1011,6 10
19.10.2017 09:00:00 10,8 10,0 8 4 14 8 ZZO 1011,3 9
19.10.2017 08:00:00 10,5 10,0 9 5 - - ZZO 1011,1 6
19.10.2017 07:00:00 10,8 10,2 5 3 11 6 ZO 1011,3 7
19.10.2017 06:00:00 11,1 10,5 8 4 11 6 ZO 1011,5 6
19.10.2017 05:00:00 11,6 11,0 8 4 - - ZO 1012,0 5
19.10.2017 04:00:00 12,0 11,6 8 4 7 4 ZZO 1012,2 4,4
19.10.2017 03:00:00 12,6 11,9 5 3 7 4 Z 1012,3 3,0
19.10.2017 02:00:00 12,8 12,0 5 3 - - Z 1012,6 6
19.10.2017 01:00:00 13,5 12,4 5 3 7 4 Z 1012,7 7
19.10.2017 00:00:00 13,3 12,6 5 3 7 4 ZZO 1012,8 7
18.10.2017 23:00:00 16,1 13,0 4 2 - - - 1012,7 10
18.10.2017 22:00:00 14,8 13,4 5 3 7 4 ZZO 1012,6 10
18.10.2017 21:00:00 15,6 13,8 5 3 7 4 Z 1012,7 10
18.10.2017 20:00:00 16,4 14,0 5 3 - - Z 1012,5 10
18.10.2017 19:00:00 18,0 14,0 5 3 7 4 Z 1012,2 10
18.10.2017 18:00:00 19,6 14,0 5 3 14 8 Z 1012,1 10
18.10.2017 17:00:00 21,2 13,5 8 4 - - ZZW 1012,0 10
18.10.2017 16:00:00 21,2 13,3 9 5 14 8 ZW 1012,2 10
18.10.2017 15:00:00 20,9 12,9 8 4 14 8 Z 1012,5 10
18.10.2017 14:00:00 20,1 12,6 8 4 - - Z 1012,8 10
18.10.2017 13:00:00 18,0 12,0 8 4 14 8 Z 1013,5 10
18.10.2017 12:00:00 15,9 11,7 9 5 14 8 Z 1013,7 10
18.10.2017 11:00:00 13,1 11,5 5 3 - - Z 1014,1 10
18.10.2017 10:00:00 10,8 10,8 2 1 7 4 - 1014,2 1,0
18.10.2017 09:00:00 10,5 10,5 4 2 11 6 - 1014,2 0,1
18.10.2017 08:00:00 10,6 10,6 8 4 - - ZO 1013,7 0,1
18.10.2017 07:00:00 11,0 11,0 5 3 14 8 NO 1014,2 0,1
18.10.2017 06:00:00 10,3 10,3 8 4 11 6 NNO 1014,5 0,1
18.10.2017 05:00:00 10,1 10,1 9 5 - - N 1014,7 0,1
18.10.2017 04:00:00 12,0 11,7 2 1 4 2 - 1015,1 -
18.10.2017 03:00:00 11,8 11,5 4 2 7 4 - 1015,5 0,5
18.10.2017 02:00:00 12,5 12,0 2 1 - - - 1015,8 1,4
18.10.2017 01:00:00 12,8 12,1 5 3 7 4 O 1016,6 6
18.10.2017 00:00:00 12,5 11,7 5 3 7 4 NNO 1017,2 8
17.10.2017 23:00:00 12,8 11,7 5 3 - - NNO 1017,7 10
17.10.2017 22:00:00 13,8 11,8 5 3 11 6 O 1018,1 10
17.10.2017 21:00:00 13,1 11,3 8 4 11 6 N 1018,6 10
17.10.2017 20:00:00 14,3 11,9 5 3 - - NNO 1019,0 10
17.10.2017 19:00:00 15,3 12,4 5 3 4 2 NO 1019,0 10
17.10.2017 18:00:00 15,9 12,4 4 2 7 4 - 1019,3 10
17.10.2017 17:00:00 16,8 13,1 4 2 - - - 1019,7 10
17.10.2017 16:00:00 17,3 12,5 4 2 7 4 - 1020,3 10
17.10.2017 15:00:00 17,5 13,1 4 2 14 8 - 1021,0 10
17.10.2017 14:00:00 17,0 12,5 8 4 - - W 1021,7 10
17.10.2017 13:00:00 16,4 13,0 5 3 11 6 ZW 1022,3 10
17.10.2017 12:00:00 15,8 12,0 5 3 11 6 WZW 1022,6 10
17.10.2017 11:00:00 15,1 13,0 4 2 - - - 1022,7 10
17.10.2017 10:00:00 13,4 12,5 4 2 11 6 - 1022,8 9
17.10.2017 09:00:00 13,5 12,6 8 4 7 4 ZW 1022,7 8
17.10.2017 08:00:00 13,1 12,7 5 3 - - ZZW 1022,7 6
17.10.2017 07:00:00 13,7 12,7 5 3 7 4 ZZW 1022,3 10
17.10.2017 06:00:00 14,6 12,9 4 2 7 4 - 1022,3 10
17.10.2017 05:00:00 14,8 12,9 5 3 - - ZW 1022,2 10
17.10.2017 04:00:00 15,4 12,8 5 3 7 4 ZW 1022,0 10
17.10.2017 03:00:00 15,5 12,8 5 3 11 6 ZZW 1021,5 10
17.10.2017 02:00:00 16,2 12,8 5 3 - - ZZW 1021,3 10
17.10.2017 01:00:00 15,9 12,9 8 4 11 6 Z 1021,2 10
17.10.2017 00:00:00 16,5 13,1 9 5 14 8 Z 1021,0 10
16.10.2017 23:00:00 16,6 13,2 11 6 - - Z 1020,8 10
16.10.2017 22:00:00 17,2 13,3 11 6 14 8 Z 1020,7 10
16.10.2017 21:00:00 19,3 13,2 11 6 22 12 Z 1020,5 10
16.10.2017 20:00:00 20,3 12,7 13 7 - - Z 1020,2 10
16.10.2017 19:00:00 21,5 12,4 11 6 18 10 Z 1019,7 10
16.10.2017 18:00:00 23,6 12,7 13 7 22 12 Z 1019,2 10
16.10.2017 17:00:00 25,2 14,2 13 7 - - Z 1019,7 10
16.10.2017 16:00:00 25,5 14,8 13 7 25 14 Z 1020,0 10
16.10.2017 15:00:00 24,8 14,6 16 9 25 14 Z 1020,6 10
16.10.2017 14:00:00 24,0 15,1 18 10 - - Z 1021,2 10
16.10.2017 13:00:00 22,7 15,2 15 8 22 12 Z 1021,7 10
16.10.2017 12:00:00 20,8 14,7 9 5 18 10 Z 1022,2 10
16.10.2017 11:00:00 19,2 14,0 15 8 - - Z 1022,2 10

tt = temperatuur
td = dauwpunt
ff = windsnelheid
fx = windstoten
dd = windrichting
ppp = luchtdruk
vv = zicht

Weerstations in de omgeving